Weather History for Ft Riley, KS

Change the Weather History Date:

Friday, March 8, 2013

  Actual Average (KMHK) Record (KMHK)
Temperature  
Mean Temperature 48 °F 40 °F  
Max Temperature 64 °F 53 °F 79 °F (2006)
Min Temperature 32 °F 27 °F 8 °F (2008)
Degree Days  
Heating Degree Days 17 25  
Month to date heating degree days 211  
Since 1 July heating degree days 4371  
Cooling Degree Days 0 0  
Month to date cooling degree days 0  
Year to date cooling degree days 0  
Moisture  
Dew Point 40 °F    
Average Humidity 66    
Maximum Humidity 97    
Minimum Humidity 45    
Precipitation  
Precipitation 0.00 in 0.08 in 0.65 in (1999)
Month to date precipitation 0.62  
Year to date precipitation 2.34  
Sea Level Pressure  
Sea Level Pressure 30.00 in    
Wind  
Wind Speed 12 mph (SE)    
Max Wind Speed 21 mph    
Max Gust Speed 31 mph    
Visibility 10 miles    
Events      
T = Trace of Precipitation, MM = Missing Value Source: NWS Daily Summary

Daily Weather History Graph

Daily Weather History Graph

Search for Another Location

Airport:

Trip Planner

Search our weather history database for the weather conditions in past years. The results will help you decide how hot, cold, wet, or windy it might be!

Date:

Astronomy

Mar. 08, 2013 Rise Set
Actual Time 6:48 AM CST 6:27 PM CST
Civil Twilight 6:22 AM CST 6:53 PM CST
Nautical Twilight 5:51 AM CST 7:24 PM CST
Astronomical Twilight 5:20 AM CST 7:56 PM CST
Moon 4:32 AM CST (3/8) 3:24 PM CST (3/8)
Length of Visible Light 12h 31m
Length of Day
11h 38m
Waning Crescent, 11% of the Moon is Illuminated
Mar 8
Waning Crescent
Mar 11
New
Mar 19
First Quarter
Mar 27
Full
Apr 2
Last Quarter

Hourly Weather History & Observations

Time (CST) Temp. Windchill Dew Point Humidity Pressure Visibility Wind Dir Wind Speed Gust Speed Precip Events Conditions
12:58 AM 34.9 °F 29.0 °F 32.4 °F 91% 30.11 in 10.0 mi NNE 6.9 mph - N/A   Clear
1:58 AM 32.9 °F 27.5 °F 32.2 °F 97% 30.11 in 10.0 mi North 5.8 mph - N/A   Clear
2:58 AM 34.5 °F 27.9 °F 31.8 °F 90% 30.10 in 10.0 mi NNE 8.1 mph - N/A   Clear
3:58 AM 36.5 °F 31.8 °F 32.4 °F 85% 30.08 in 10.0 mi Variable 5.8 mph - N/A   Clear
4:58 AM 43.3 °F 37.7 °F 31.6 °F 63% 30.08 in 10.0 mi SE 10.4 mph - N/A   Clear
5:58 AM 44.1 °F 39.5 °F 31.1 °F 60% 30.09 in 10.0 mi SE 8.1 mph - N/A   Clear
6:58 AM 44.1 °F 37.7 °F 31.3 °F 61% 30.08 in 10.0 mi SE 12.7 mph - N/A   Clear
7:58 AM 45.0 °F 37.9 °F 31.8 °F 60% 30.08 in 10.0 mi SE 16.1 mph 24.2 mph N/A   Partly Cloudy
8:58 AM 47.7 °F - 32.2 °F 55% 30.08 in 10.0 mi SE 10.4 mph 17.3 mph N/A   Partly Cloudy
9:58 AM 52.9 °F - 34.5 °F 50% 30.07 in 10.0 mi South 16.1 mph 24.2 mph N/A   Scattered Clouds
10:58 AM 59.9 °F - 38.7 °F 45% 30.06 in 10.0 mi SSE 17.3 mph 23.0 mph N/A   Clear
11:58 AM 61.2 °F - 40.3 °F 46% 30.06 in 10.0 mi SSE 11.5 mph - N/A   Mostly Cloudy
12:58 PM 64.2 °F - 42.6 °F 45% 30.02 in 10.0 mi South 15.0 mph 23.0 mph N/A   Mostly Cloudy
1:58 PM 63.5 °F - 43.9 °F 49% 29.99 in 10.0 mi SSE 18.4 mph 23.0 mph N/A   Mostly Cloudy
2:58 PM 62.1 °F - 43.0 °F 50% 29.97 in 10.0 mi SSE 17.3 mph - N/A   Overcast
3:58 PM 62.2 °F - 44.8 °F 53% 29.94 in 10.0 mi SE 18.4 mph 26.5 mph N/A   Overcast
4:58 PM 62.4 °F - 46.0 °F 55% 29.92 in 10.0 mi SE 18.4 mph 26.5 mph N/A   Overcast
5:58 PM 59.4 °F - 48.0 °F 66% 29.93 in 10.0 mi SE 20.7 mph 28.8 mph N/A   Overcast
6:58 PM 54.9 °F - 46.9 °F 75% 29.94 in 10.0 mi SSE 17.3 mph 31.1 mph N/A   Overcast
7:03 PM 55.4 °F - 46.4 °F 72% 29.94 in 10.0 mi SE 16.1 mph 24.2 mph N/A   Overcast
7:58 PM 53.1 °F - 47.7 °F 82% 29.94 in 10.0 mi SSE 11.5 mph 20.7 mph N/A   Overcast
8:58 PM 53.4 °F - 46.4 °F 77% 29.94 in 10.0 mi SSE 16.1 mph - N/A   Overcast
9:21 PM 53.6 °F - 46.4 °F 77% 29.93 in 10.0 mi SSE 12.7 mph - N/A   Light Drizzle
9:31 PM 53.6 °F - 46.4 °F 77% 29.93 in 10.0 mi SSE 13.8 mph 21.9 mph N/A   Overcast
9:58 PM 54.0 °F - 43.7 °F 68% 29.92 in 10.0 mi SSE 10.4 mph 24.2 mph 0.00 in   Overcast
10:58 PM 54.7 °F - 41.4 °F 61% 29.90 in 10.0 mi South 13.8 mph - N/A   Overcast
11:58 PM 54.9 °F - 40.8 °F 59% 29.89 in 10.0 mi South 17.3 mph 24.2 mph N/A   Overcast